TimeEST,TemperatureF,Dew PointF,Humidity,Sea Level PressureIn,VisibilityMPH,Wind Direction,Wind SpeedMPH,Gust SpeedMPH,PrecipitationIn,Events,Conditions,WindDirDegrees,DateUTC
12:54 AM,35.1,24.1,64,30.54,10.0,WNW,3.5,-,N/A,,Clear,300,2011-12-03 05:54:00
1:54 AM,33.1,24.1,70,30.56,10.0,Calm,Calm,-,N/A,,Clear,0,2011-12-03 06:54:00
2:54 AM,32.0,24.1,73,30.57,10.0,East,4.6,-,N/A,,Clear,90,2011-12-03 07:54:00
3:54 AM,33.1,24.1,70,30.59,10.0,Calm,Calm,-,N/A,,Clear,0,2011-12-03 08:54:00
4:54 AM,30.0,24.1,79,30.61,10.0,West,3.5,-,N/A,,Clear,280,2011-12-03 09:54:00
5:54 AM,33.1,25.0,72,30.62,10.0,Calm,Calm,-,N/A,,Clear,0,2011-12-03 10:54:00
6:54 AM,36.0,25.0,64,30.64,10.0,Calm,Calm,-,N/A,,Clear,0,2011-12-03 11:54:00
7:54 AM,35.1,26.1,70,30.65,10.0,Calm,Calm,-,N/A,,Clear,0,2011-12-03 12:54:00
8:54 AM,39.0,28.0,65,30.66,10.0,Calm,Calm,-,N/A,,Clear,0,2011-12-03 13:54:00
9:54 AM,41.0,28.0,60,30.68,10.0,South,5.8,-,N/A,,Clear,170,2011-12-03 14:54:00
10:54 AM,43.0,28.0,56,30.67,10.0,SSE,9.2,-,N/A,,Clear,150,2011-12-03 15:54:00
11:54 AM,45.0,28.9,53,30.65,10.0,ESE,3.5,-,N/A,,Clear,110,2011-12-03 16:54:00
12:54 PM,46.9,28.9,50,30.62,10.0,Variable,3.5,-,N/A,,Clear,0,2011-12-03 17:54:00
1:54 PM,48.9,28.9,46,30.59,10.0,East,4.6,-,N/A,,Clear,80,2011-12-03 18:54:00
2:54 PM,48.9,28.9,46,30.58,10.0,SE,4.6,-,N/A,,Clear,130,2011-12-03 19:54:00
3:54 PM,48.0,30.0,50,30.58,10.0,SE,9.2,-,N/A,,Clear,140,2011-12-03 20:54:00
4:54 PM,46.9,28.9,50,30.58,10.0,ESE,6.9,-,N/A,,Clear,110,2011-12-03 21:54:00
5:54 PM,45.0,30.0,56,30.59,10.0,ESE,4.6,-,N/A,,Clear,110,2011-12-03 22:54:00
6:54 PM,45.0,30.0,56,30.59,10.0,ESE,3.5,-,N/A,,Clear,120,2011-12-03 23:54:00
7:54 PM,42.1,30.0,62,30.60,10.0,Calm,Calm,-,0.00,Rain,Light Rain,0,2011-12-04 00:54:00
8:54 PM,43.0,28.9,58,30.60,10.0,Calm,Calm,-,N/A,,Clear,0,2011-12-04 01:54:00
9:54 PM,39.0,28.9,67,30.60,10.0,Calm,Calm,-,N/A,,Clear,0,2011-12-04 02:54:00
10:54 PM,37.9,28.9,70,30.59,10.0,Calm,Calm,-,N/A,,Clear,0,2011-12-04 03:54:00
11:54 PM,34.0,28.0,79,30.58,10.0,Calm,Calm,-,N/A,,Clear,0,2011-12-04 04:54:00